Location: Newark
(52.3500°N, 175.9667°E)
Time: 02:02:01
(UTC+00:00)

N. Korean satellite - Pass Details

Date: 02 March 2021
Orbit: 453 x 499 km, 97.2° (Epoch: 11 April)

Event Time Altitude Azimuth Distance (km) Brightness Sun altitude
Rises 16:50:18 0° 26° (NNE) 2,518 10.8 -20.3°
Reaches altitude 10° 16:52:51 10° 46° (NE) 1,644 10.1 -19.9°
Maximum altitude 16:55:20 18° 92° (E) 1,232 9.5 -19.5°
Drops below altitude 10° 16:57:51 10° 137° (SE) 1,653 9.6 -19.2°
Sets 17:00:25 0° 157° (SSE) 2,536 10.3 -18.8°
